Flag for Slovakia Weather past 2 weeks in Bratislava, Slovakia

Now
66 °F

Passing clouds.


Feels Like: 66 °F
Forecast: 58 / 72 °F
Wind: 3 mph from Northeast

Location: Bratislava Ivanka

Current Time: Sep 3, 2015 at 10:09:07 PM

Latest Report: Sep 3, 2015 at 9:30 PM


Visibility: N/A

Pressure: 29.86 "Hg

Humidity: 73%

Dew point: 57 °F

Location of BratislavaLocation

Historic Weather in Bratislava — Graph

°F

Bratislava temperature yesterday

Maximum temperature yesterday: 79 °F (at 1:00 AM)
Minimum temperature yesterday: 63 °F (at 10:30 PM)
Average temperature yesterday: 70 °F

Past Weeks' High & Low Weather Summary

 TemperatureHumidityPressure
High93 °F (Aug 30, 4:00 PM)100% (Aug 28, 3:00 AM)30.24 "Hg (Aug 28, 3:00 AM)
Low54 °F (Aug 23, 4:00 AM)27% (Aug 31, 7:00 PM)29.74 "Hg (Sep 1, 6:00 PM)
Average70 °F66%30.04 "Hg
* Reported Aug 19 9:00 PM — Sep 3 9:00 PM, Bratislava, Weather by CustomWeather, © 2015

Note: Actual official high and low records may vary slightly from our data, if they occured in-between our weather recording intervals... More about our weather records

Advertising

Bratislava weather history for previous 24 hours

 ConditionsComfort  
Time TempWeatherWind HumidityBarometerVisibility
9:00 PM
Thu, Sep 3
66 °FPassing clouds.7 mph73%29.86 "HgN/A
8:30 PM68 °FPassing clouds.2 mph69%29.86 "HgN/A
8:00 PM70 °FPassing clouds.5 mph64%29.86 "HgN/A
7:30 PM72 °FPassing clouds.2 mph57%29.86 "HgN/A
7:00 PM73 °FSunny.2 mph53%29.86 "Hg10 mi
6:30 PM73 °FSunny.2 mph53%29.86 "Hg10 mi
6:00 PM75 °FPassing clouds.3 mph50%29.86 "HgN/A
5:30 PM75 °FSunny.2 mph47%29.89 "Hg10 mi
5:00 PM75 °FPassing clouds.3 mph47%29.89 "HgN/A
4:30 PM77 °FSunny.2 mph44%29.89 "Hg10 mi
4:00 PM75 °FSunny.2 mph47%29.89 "Hg10 mi
3:30 PM73 °FPassing clouds.3 mph50%29.92 "HgN/A
3:00 PM73 °FPartly sunny.7 mph53%29.92 "HgN/A
2:30 PM73 °FPassing clouds.3 mph47%29.92 "HgN/A
2:00 PM75 °FScattered clouds.5 mph47%29.92 "HgN/A
1:30 PM75 °FPassing clouds.2 mph47%29.95 "HgN/A
1:00 PM73 °FPartly sunny.3 mph50%29.95 "HgN/A
12:30 PM72 °FPartly sunny.2 mph57%29.95 "HgN/A
12:00 PM70 °FPassing clouds.2 mph57%29.95 "HgN/A
11:30 AM70 °FScattered clouds.7 mph60%29.95 "HgN/A
11:00 AM72 °FPartly sunny.3 mph53%29.98 "HgN/A
10:30 AM72 °FSunny.2 mph61%29.98 "Hg10 mi
10:00 AM70 °FSunny.2 mph60%29.98 "Hg10 mi
9:30 AM64 °FSunny.1 mph73%29.98 "Hg10 mi
9:00 AM64 °FPartly sunny.9 mph73%29.98 "HgN/A
8:30 AM68 °FPassing clouds.3 mph60%29.98 "HgN/A
8:00 AM64 °FSunny.2 mph68%29.98 "Hg10 mi
7:30 AM63 °FSunny.2 mph77%29.98 "Hg10 mi
7:00 AM61 °FPassing clouds.3 mph77%29.95 "HgN/A
6:30 AM57 °FClear.6 mph88%29.98 "Hg10 mi
6:00 AM55 °FClear.7 mph88%29.98 "Hg10 mi
5:30 AM57 °FClear.No wind82%29.98 "Hg10 mi
5:00 AM59 °FClear.1 mph82%29.98 "Hg10 mi
4:30 AM59 °FClear.3 mph82%29.98 "Hg10 mi
4:00 AM61 °FClear.2 mph77%29.98 "Hg10 mi
3:30 AM61 °FClear.5 mph77%29.98 "Hg10 mi
3:00 AM63 °FClear.8 mph77%29.98 "Hg10 mi
2:30 AM63 °FClear.9 mph77%29.98 "Hg10 mi
2:00 AM63 °FClear.9 mph77%29.98 "Hg10 mi
1:30 AM63 °FClear.9 mph77%29.98 "Hg10 mi
1:00 AM63 °FClear.10 mph77%29.98 "Hg10 mi
11:30 PM
Wed, Sep 2
63 °FLight rain. Passing clouds.8 mph83%29.98 "HgN/A
11:00 PM63 °FClear.7 mph83%29.98 "Hg10 mi
10:30 PM63 °FClear.7 mph83%29.98 "Hg10 mi
10:00 PM64 °FPassing clouds.5 mph78%29.98 "HgN/A
Weather by CustomWeather, © 2015

See weather overviewHow to use our weather pages